Luverne, MN

12:42 PM CDT on July 20, 2017 (GMT -0500)
Luverne

Weather History for KLYV - November, 2012

Change the Weather History Date:

Saturday, November 24, 2012

  Actual Average (KPQN) Record (KPQN)
Temperature  
Mean Temperature 24 °F -  
Max Temperature 37 °F 36 °F 60 °F (2011)
Min Temperature 12 °F 20 °F 1 °F (1996)
Degree Days  
Heating Degree Days 40    
Moisture  
Dew Point 15 °F    
Average Humidity 64    
Maximum Humidity 86    
Minimum Humidity 38    
Precipitation  
Precipitation 0.00 in - - ()
Sea Level Pressure  
Sea Level Pressure 30.02 in    
Wind  
Wind Speed 6 mph (South)    
Max Wind Speed 25 mph    
Max Gust Speed 29 mph    
Visibility 10 miles    
Events      
Averages and records for this station are not official NWS values.
T = Trace of Precipitation, MM = Missing Value Source: NWS Daily Summary

Daily Weather History Graph

Daily Weather History Graph

Search for Another Location

Airport or City:

Trip Planner

Search our weather history database for the weather conditions in past years. The results will help you decide how hot, cold, wet, or windy it might be!

Date:

Astronomy

Nov. 24, 2012 Rise Set
Actual Time 7:30 AM CST 4:52 PM CST
Civil Twilight 6:59 AM CST 5:24 PM CST
Nautical Twilight 6:23 AM CST 5:59 PM CST
Astronomical Twilight 5:49 AM CST 6:33 PM CST
Moon 2:42 PM CST (11/24) 3:43 AM CST (11/24)
Length of Visible Light 10h 24m
Length of Day
9h 21m
Waxing Gibbous, 87% of the Moon is Illuminated
Nov 24
Waxing Gibbous
Nov 28
Full
Dec 6
Last Quarter
Dec 13
New
Dec 19
First Quarter

Hourly Weather History & Observations

Time (CST) Temp. Windchill Dew Point Humidity Pressure Visibility Wind Dir Wind Speed Gust Speed Precip Events Conditions
12:15 AM 12.2 °F - 8.6 °F 85% 30.36 in 10.0 mi Calm Calm - N/A   Clear
12:34 AM 14.0 °F - 10.4 °F 86% 30.34 in 10.0 mi Calm Calm - N/A   Clear
12:55 AM 14.0 °F - 10.4 °F 86% 30.33 in 10.0 mi Calm Calm - N/A   Clear
1:14 AM 12.2 °F - 8.6 °F 85% 30.32 in 10.0 mi Calm Calm - N/A   Scattered Clouds
1:35 AM 14.0 °F - 10.4 °F 86% 30.32 in 10.0 mi Calm Calm - N/A   Mostly Cloudy
2:14 AM 14.0 °F - 10.4 °F 86% 30.32 in 10.0 mi Calm Calm - N/A   Clear
2:35 AM 14.0 °F - 10.4 °F 86% 30.30 in 10.0 mi Calm Calm - N/A   Scattered Clouds
2:55 AM 14.0 °F - 10.4 °F 86% 30.29 in 10.0 mi Calm Calm - N/A   Scattered Clouds
3:14 AM 15.8 °F - 10.4 °F 79% 30.29 in 10.0 mi Calm Calm - N/A   Mostly Cloudy
3:35 AM 15.8 °F - 10.4 °F 79% 30.28 in 10.0 mi Calm Calm - N/A   Scattered Clouds
3:55 AM 15.8 °F - 10.4 °F 79% 30.27 in 10.0 mi Calm Calm - N/A   Clear
4:14 AM 15.8 °F - 10.4 °F 79% 30.26 in 10.0 mi Calm Calm - N/A   Clear
4:35 AM 17.6 °F 12.3 °F 12.2 °F 79% 30.26 in 10.0 mi South 3.5 mph - N/A   Scattered Clouds
4:55 AM 17.6 °F 10.7 °F 12.2 °F 79% 30.25 in 10.0 mi South 4.6 mph - N/A   Mostly Cloudy
5:14 AM 17.6 °F 10.7 °F 12.2 °F 79% 30.24 in 10.0 mi SE 4.6 mph - N/A   Scattered Clouds
5:35 AM 17.6 °F 10.7 °F 12.2 °F 79% 30.24 in 10.0 mi ESE 4.6 mph - N/A   Mostly Cloudy
6:14 AM 19.4 °F 10.4 °F 14.0 °F 80% 30.22 in 10.0 mi SSE 6.9 mph - N/A   Scattered Clouds
6:34 AM 19.4 °F 10.4 °F 14.0 °F 80% 30.22 in 10.0 mi SSE 6.9 mph - N/A   Scattered Clouds
6:55 AM 19.4 °F 10.4 °F 14.0 °F 80% 30.21 in 10.0 mi SE 6.9 mph - N/A   Scattered Clouds
7:14 AM 19.4 °F 9.5 °F 14.0 °F 80% 30.20 in 10.0 mi SSE 8.1 mph - N/A   Scattered Clouds
7:35 AM 19.4 °F 9.5 °F 14.0 °F 80% 30.17 in 10.0 mi SSE 8.1 mph - N/A   Mostly Cloudy
7:55 AM 19.4 °F 8.6 °F 14.0 °F 80% 30.15 in 10.0 mi SSE 9.2 mph - N/A   Scattered Clouds
8:14 AM 21.2 °F 10.1 °F 14.0 °F 74% 30.17 in 10.0 mi SSE 10.4 mph - N/A   Clear
8:35 AM 21.2 °F 12.6 °F 14.0 °F 74% 30.16 in 10.0 mi SSE 6.9 mph - N/A   Mostly Cloudy
8:55 AM 21.2 °F 8.9 °F 14.0 °F 74% 30.14 in 10.0 mi SSE 12.7 mph - N/A   Overcast
9:14 AM 23.0 °F 12.4 °F 14.0 °F 68% 30.13 in 10.0 mi SSE 10.4 mph - N/A   Overcast
9:35 AM 23.0 °F 11.1 °F 15.8 °F 74% 30.12 in 10.0 mi SSE 12.7 mph - N/A   Overcast
9:55 AM 24.8 °F 14.6 °F 15.8 °F 69% 30.12 in 10.0 mi SSE 10.4 mph - N/A   Overcast
10:14 AM 26.6 °F 15.2 °F 15.8 °F 64% 30.11 in 10.0 mi SSE 13.8 mph - N/A   Overcast
10:35 AM 26.6 °F 15.2 °F 15.8 °F 64% 30.10 in 10.0 mi SSE 13.8 mph 18.4 mph N/A   Overcast
10:55 AM 28.4 °F 16.2 °F 15.8 °F 59% 30.08 in 10.0 mi SSE 17.3 mph - N/A   Scattered Clouds
11:14 AM 30.2 °F 19.3 °F 15.8 °F 55% 30.05 in 10.0 mi SSE 15.0 mph 19.6 mph N/A   Clear
11:35 AM 30.2 °F 18.5 °F 15.8 °F 55% 30.02 in 10.0 mi SSE 17.3 mph - N/A   Clear
11:55 AM 32.0 °F 20.5 °F 15.8 °F 51% 30.00 in 10.0 mi SSE 18.4 mph - N/A   Clear
12:14 PM 32.0 °F 20.5 °F 15.8 °F 51% 29.97 in 10.0 mi SSE 18.4 mph 25.3 mph N/A   Clear
12:35 PM 33.8 °F 22.5 °F 15.8 °F 48% 29.95 in 10.0 mi South 19.6 mph 25.3 mph N/A   Clear
12:55 PM 33.8 °F 22.5 °F 15.8 °F 48% 29.93 in 10.0 mi South 19.6 mph - N/A   Clear
1:14 PM 35.6 °F 25.2 °F 15.8 °F 44% 29.92 in 10.0 mi South 18.4 mph 25.3 mph N/A   Clear
1:35 PM 35.6 °F 23.4 °F 15.8 °F 44% 29.91 in 10.0 mi South 25.3 mph 28.8 mph N/A   Scattered Clouds
1:54 PM 37.4 °F 26.4 °F 15.8 °F 41% 29.90 in 10.0 mi South 23.0 mph 26.5 mph N/A   Scattered Clouds
2:15 PM 37.4 °F 26.4 °F 15.8 °F 41% 29.88 in 10.0 mi SSW 23.0 mph - N/A   Scattered Clouds
2:35 PM 37.4 °F 26.9 °F 14.0 °F 38% 29.88 in 10.0 mi South 20.7 mph 26.5 mph N/A   Scattered Clouds
2:54 PM 37.4 °F 26.9 °F 14.0 °F 38% 29.87 in 10.0 mi South 20.7 mph 26.5 mph N/A   Scattered Clouds
3:15 PM 37.4 °F 27.5 °F 14.0 °F 38% 29.87 in 10.0 mi SSW 18.4 mph 24.2 mph N/A   Clear
3:34 PM 37.4 °F 27.8 °F 15.8 °F 41% 29.86 in 10.0 mi SSW 17.3 mph - N/A   Clear
3:55 PM 35.6 °F 26.2 °F 15.8 °F 44% 29.85 in 10.0 mi SSW 15.0 mph - N/A   Clear
4:14 PM 33.8 °F 24.8 °F 15.8 °F 48% 29.85 in 10.0 mi SSW 12.7 mph - N/A   Clear
4:34 PM 33.8 °F 25.8 °F 15.8 °F 48% 29.85 in 10.0 mi South 10.4 mph - N/A   Clear
4:55 PM 32.0 °F 24.2 °F 15.8 °F 51% 29.83 in 10.0 mi South 9.2 mph - N/A   Clear
5:14 PM 32.0 °F 24.2 °F 17.6 °F 55% 29.83 in 10.0 mi South 9.2 mph - N/A   Mostly Cloudy
5:34 PM 32.0 °F 24.8 °F 17.6 °F 55% 29.83 in 10.0 mi South 8.1 mph - N/A   Mostly Cloudy
5:55 PM 32.0 °F 26.4 °F 17.6 °F 55% 29.84 in 10.0 mi SSW 5.8 mph - N/A   Scattered Clouds
6:14 PM 30.2 °F 22.6 °F 17.6 °F 60% 29.83 in 10.0 mi South 8.1 mph - N/A   Clear
6:34 PM 32.0 °F 23.6 °F 17.6 °F 55% 29.82 in 10.0 mi South 10.4 mph - N/A   Scattered Clouds
6:55 PM 32.0 °F 26.4 °F 17.6 °F 55% 29.82 in 10.0 mi SSW 5.8 mph - N/A   Mostly Cloudy
7:14 PM 32.0 °F 27.5 °F 17.6 °F 55% 29.83 in 10.0 mi SW 4.6 mph - N/A   Scattered Clouds
7:35 PM 32.0 °F 26.4 °F 17.6 °F 55% 29.83 in 10.0 mi SSW 5.8 mph - N/A   Overcast
7:55 PM 32.0 °F 27.5 °F 19.4 °F 60% 29.83 in 10.0 mi SW 4.6 mph - N/A   Mostly Cloudy
8:14 PM 32.0 °F - 19.4 °F 60% 29.82 in 10.0 mi Calm Calm - N/A   Scattered Clouds
8:35 PM 32.0 °F - 19.4 °F 60% 29.83 in 10.0 mi Calm Calm - N/A   Scattered Clouds
8:54 PM 32.0 °F - 19.4 °F 60% 29.82 in 10.0 mi Calm Calm - N/A   Clear
9:15 PM 32.0 °F - 19.4 °F 60% 29.81 in 10.0 mi Calm Calm - N/A   Clear
9:34 PM 32.0 °F - 19.4 °F 60% 29.81 in 10.0 mi Calm Calm - N/A   Scattered Clouds
9:54 PM 32.0 °F - 19.4 °F 60% 29.82 in 10.0 mi Calm Calm - N/A   Scattered Clouds
10:15 PM 32.0 °F 26.4 °F 19.4 °F 60% 29.82 in 10.0 mi WNW 5.8 mph - N/A   Clear
10:35 PM 32.0 °F 24.8 °F 19.4 °F 60% 29.82 in 10.0 mi NW 8.1 mph - N/A   Clear
10:54 PM 33.8 °F 27.7 °F 21.2 °F 60% 29.84 in 10.0 mi NW 6.9 mph - N/A   Clear
11:15 PM 33.8 °F 27.0 °F 21.2 °F 60% 29.84 in 10.0 mi NW 8.1 mph - N/A   Clear
11:34 PM 32.0 °F 28.7 °F 21.2 °F 64% 29.84 in 10.0 mi NW 3.5 mph - N/A   Clear
11:55 PM 32.0 °F 28.7 °F 21.2 °F 64% 29.85 in 10.0 mi NW 3.5 mph - N/A   Clear